User: anonymous   Login
Location: Corralito
(10.2667°N, 66.9500°W)
Time: 20:07:44
(UTC+00:00)
Language:

CZ-6A DEB - Orbit

View from above orbital plane
View from above orbital plane
View from above satellite
View from above satellite

Ground track
Ground track

The orbit data is extracted from the following two-line orbital elements,

1 55235U 22151XC  24112.63769864  .00020050  00000-0  53226-2 0  9997
2 55235  98.6800 135.5380 0112971 176.4679 183.7334 14.44902936 75530
Epoch (UTC): 21 April 2024 15:18:17
Eccentricity: 0.0112971
inclination: 98.6800°
perigee height: 662 km
apogee height: 823 km
right ascension of ascending node: 135.5380°
argument of perigee: 176.4679°
revolutions per day: 14.44902936
mean anomaly at epoch: 183.7334°
orbit number at epoch: 7553

The dashed part of the orbit path shows where the satellite is in the earth's shadow,  

DLR